Regional Weather Roundup
Issued by NWS

Home | Current Version | Previous Version | Text Only | Print | Product List | Glossary On
Versions: 1 2 3 4 5 6 7 8 9 10 11 12 13 14 15 16 17 18 19 20 21 22 23 24 25 26 27
000
ASPQ40 PGUM 241912
RWRPQ
WEATHER ROUNDUP FOR THE MARIANAS AND MICRONESIA
NATIONAL WEATHER SERVICE TIYAN GU
500 AM CHST THU MAY 25 2017

GUZ001>004-242000-
MARIANA ISLANDS-

CITY           SKY/WX    TMP DP  RH WIND       PRES   REMARKS
GUAM AIRPORT   CLEAR     81  75  83 E3        29.87S
ANDERSEN AFB   LGT RAIN  79  75  89 E7        29.89R
ROTA AIRPORT   NOT AVBL
TINIAN AP      NOT AVBL
SAIPAN AP      PTCLDY    81  73  78 E6        29.87R

$$

PMZ161-242000-
REPUBLIC OF PALAU-

CITY           SKY/WX    TMP DP  RH WIND       PRES   REMARKS
KOROR AP       MOCLDY    77  75  94 CALM      29.77F
KOROR WSO      PTCLDY    81  77  89 S7        29.78F

$$

PMZ171>174-242000-
FEDERATED STATES OF MICRONESIA-

CITY           SKY/WX    TMP DP  RH WIND       PRES   REMARKS
YAP AIRPORT    CLOUDY    79  77  94 VRB6      29.79S
CHUUK AP       MOCLDY    82  79  89 VRB6      29.81R HX  93
POHNPEI AP     NOT AVBL
POHNPEI WSO    LGT RAIN  81  77  89 E14       29.84R
KOSRAE AP      NOT AVBL

$$

PMZ181-242000-
REPUBLIC OF THE MARSHALL ISLANDS-

CITY           SKY/WX    TMP DP  RH WIND       PRES   REMARKS
KWAJALEIN AP   CLEAR     82  72  69 E16       29.85R
MAJURO AP      NOT AVBL
MAJURO WSO     MOCLDY    82  77  83 E10       29.81R HX  91

$$





USA.gov is the U.S. government's official web portal to all federal, state and local government web resources and services.